QPF
0.01 0.02 0.04 0.06 0.11 0.11 0.09 0.05 0.02 0.01 0.01 0.01 0.01 0.01 0.01 0.01 0.03 0.03 0.04 0.04 0.03 0.03 0.03 0.03 0.02 0.02 0.02 0.02 0.02 0.02 0.03 0.03 0.02 0.03 0.05 0.06 0.08 0.09 0.11 0.10 0.11 0.12 0.12 0.13 0.11 0.11 0.09 0.06 0.05
0.03 0.05 0.08 0.09 0.16 0.21 0.12 0.04 0.02 0.01 0.01 0.01 0.00 0.00 0.00 0.00 0.01 0.02 0.03 0.03 0.03 0.04 0.04 0.02 0.03 0.02 0.03 0.03 0.02 0.03 0.03 0.04 0.03 0.04 0.05 0.05 0.07 0.09 0.10 0.10 0.10 0.11 0.10 0.08 0.08 0.09 0.08 0.07 0.08
0.05 0.08 0.11 0.13 0.14 0.12 0.09 0.03 0.01 0.01 0.01 0.00 0.00 0.00 0.00 0.01 0.01 0.02 0.02 0.03 0.02 0.02 0.04 0.02 0.03 0.02 0.02 0.03 0.02 0.03 0.03 0.04 0.03 0.04 0.04 0.04 0.06 0.08 0.09 0.10 0.10 0.10 0.11 0.11 0.09 0.10 0.11 0.10 0.09
0.04 0.08 0.12 0.14 0.10 0.06 0.04 0.03 0.01 0.01 0.00 0.00 0.00 0.01 0.02 0.01 0.01 0.01 0.01 0.02 0.02 0.02 0.04 0.02 0.02 0.02 0.02 0.02 0.02 0.02 0.03 0.04 0.03 0.03 0.04 0.04 0.05 0.08 0.08 0.08 0.11 0.17 0.16 0.11 0.09 0.08 0.09 0.07 0.05
0.06 0.10 0.14 0.15 0.08 0.06 0.03 0.02 0.01 0.01 0.00 0.00 0.00 0.02 0.04 0.02 0.01 0.01 0.01 0.02 0.04 0.04 0.03 0.01 0.02 0.03 0.03 0.02 0.02 0.03 0.04 0.04 0.03 0.03 0.04 0.04 0.04 0.06 0.08 0.09 0.11 0.17 0.15 0.08 0.05 0.05 0.06 0.05 0.04
0.09 0.15 0.14 0.09 0.06 0.04 0.03 0.02 0.01 0.01 0.01 0.01 0.00 0.01 0.04 0.04 0.02 0.02 0.02 0.03 0.03 0.03 0.02 0.02 0.03 0.03 0.03 0.02 0.02 0.04 0.05 0.05 0.05 0.05 0.05 0.05 0.05 0.06 0.06 0.07 0.06 0.06 0.07 0.06 0.05 0.04 0.04 0.05 0.05
0.14 0.23 0.14 0.05 0.04 0.03 0.02 0.02 0.01 0.01 0.02 0.01 0.00 0.01 0.04 0.05 0.04 0.03 0.04 0.04 0.04 0.03 0.03 0.03 0.02 0.02 0.03 0.06 0.11 0.10 0.08 0.07 0.06 0.05 0.06 0.07 0.07 0.07 0.08 0.06 0.07 0.07 0.06 0.06 0.06 0.04 0.04 0.05 0.06
0.17 0.13 0.08 0.06 0.05 0.02 0.02 0.02 0.01 0.01 0.01 0.00 0.01 0.01 0.03 0.03 0.04 0.03 0.04 0.05 0.02 0.01 0.02 0.03 0.06 0.06 0.04 0.07 0.15 0.14 0.11 0.07 0.05 0.05 0.06 0.08 0.08 0.07 0.08 0.07 0.08 0.10 0.11 0.10 0.09 0.06 0.08 0.09 0.08
0.07 0.07 0.04 0.05 0.04 0.02 0.02 0.02 0.01 0.00 0.00 0.00 0.00 0.01 0.01 0.01 0.02 0.04 0.06 0.03 0.01 0.01 0.02 0.03 0.04 0.05 0.05 0.04 0.06 0.06 0.04 0.04 0.04 0.04 0.07 0.09 0.10 0.09 0.09 0.08 0.09 0.10 0.11 0.10 0.08 0.07 0.09 0.10 0.10
0.04 0.04 0.02 0.02 0.03 0.02 0.01 0.02 0.01 0.01 0.01 0.01 0.01 0.02 0.02 0.02 0.02 0.02 0.02 0.01 0.01 0.01 0.01 0.02 0.05 0.05 0.04 0.02 0.02 0.03 0.03 0.03 0.03 0.05 0.06 0.10 0.12 0.12 0.13 0.12 0.13 0.14 0.13 0.09 0.09 0.08 0.08 0.07 0.08
0.03 0.02 0.02 0.02 0.02 0.03 0.03 0.03 0.01 0.01 0.01 0.01 0.01 0.02 0.03 0.03 0.02 0.01 0.01 0.01 0.00 0.01 0.01 0.01 0.03 0.02 0.04 0.03 0.02 0.03 0.04 0.04 0.05 0.05 0.06 0.08 0.10 0.15 0.19 0.14 0.13 0.13 0.12 0.07 0.07 0.07 0.06 0.06 0.06
0.02 0.02 0.02 0.01 0.02 0.02 0.03 0.04 0.01 0.01 0.01 0.01 0.01 0.01 0.01 0.02 0.03 0.02 0.03 0.01 0.01 0.01 0.01 0.02 0.02 0.02 0.03 0.03 0.02 0.03 0.05 0.05 0.04 0.06 0.06 0.06 0.06 0.09 0.11 0.11 0.09 0.09 0.10 0.09 0.07 0.05 0.05 0.04 0.05
0.01 0.02 0.01 0.01 0.01 0.01 0.03 0.04 0.02 0.02 0.01 0.00 0.00 0.00 0.00 0.01 0.02 0.02 0.02 0.01 0.01 0.01 0.01 0.02 0.02 0.02 0.02 0.02 0.04 0.03 0.05 0.05 0.05 0.06 0.07 0.05 0.04 0.06 0.08 0.11 0.10 0.09 0.10 0.09 0.08 0.05 0.05 0.06 0.07
0.01 0.01 0.01 0.01 0.01 0.01 0.01 0.02 0.02 0.02 0.01 0.01 0.00 0.00 0.00 0.00 0.00 0.00 0.01 0.00 0.00 0.01 0.01 0.02 0.02 0.02 0.01 0.02 0.03 0.03 0.04 0.05 0.05 0.07 0.08 0.06 0.06 0.08 0.08 0.07 0.07 0.08 0.09 0.09 0.10 0.08 0.06 0.08 0.10
0.00 0.01 0.01 0.01 0.01 0.02 0.01 0.02 0.03 0.03 0.02 0.02 0.01 0.01 0.01 0.01 0.00 0.00 0.00 0.00 0.00 0.00 0.02 0.02 0.01 0.01 0.01 0.01 0.02 0.03 0.04 0.04 0.05 0.08 0.08 0.06 0.05 0.03 0.03 0.03 0.05 0.07 0.08 0.10 0.13 0.10 0.08 0.09 0.11
0.01 0.01 0.01 0.01 0.01 0.03 0.02 0.04 0.04 0.03 0.05 0.04 0.02 0.01 0.01 0.01 0.01 0.01 0.01 0.01 0.00 0.00 0.02 0.02 0.01 0.00 0.00 0.01 0.02 0.02 0.04 0.04 0.06 0.07 0.06 0.04 0.04 0.03 0.03 0.03 0.04 0.04 0.04 0.06 0.09 0.10 0.11 0.12 0.12
0.01 0.01 0.01 0.01 0.02 0.02 0.02 0.03 0.04 0.03 0.06 0.07 0.02 0.02 0.02 0.02 0.02 0.01 0.01 0.01 0.01 0.01 0.01 0.01 0.01 0.01 0.01 0.01 0.02 0.03 0.05 0.07 0.08 0.06 0.04 0.05 0.04 0.05 0.06 0.05 0.05 0.04 0.04 0.05 0.06 0.05 0.05 0.09 0.11
0.02 0.03 0.01 0.01 0.01 0.01 0.01 0.02 0.03 0.03 0.03 0.04 0.03 0.03 0.02 0.02 0.02 0.02 0.01 0.01 0.01 0.01 0.01 0.01 0.01 0.01 0.01 0.02 0.02 0.04 0.08 0.11 0.09 0.05 0.04 0.05 0.07 0.08 0.09 0.07 0.07 0.07 0.06 0.05 0.05 0.03 0.04 0.05 0.06
0.02 0.03 0.02 0.01 0.01 0.01 0.01 0.02 0.03 0.04 0.03 0.04 0.05 0.04 0.02 0.02 0.01 0.01 0.01 0.01 0.01 0.01 0.01 0.01 0.01 0.01 0.01 0.01 0.03 0.07 0.09 0.09 0.07 0.05 0.05 0.08 0.10 0.12 0.11 0.08 0.15 0.09 0.06 0.05 0.06 0.05 0.06 0.05 0.04
0.02 0.03 0.02 0.01 0.01 0.00 0.01 0.02 0.02 0.03 0.04 0.05 0.10 0.09 0.05 0.02 0.01 0.01 0.01 0.01 0.01 0.01 0.01 0.01 0.01 0.01 0.01 0.02 0.04 0.07 0.08 0.08 0.07 0.07 0.09 0.11 0.14 0.13 0.10 0.07 0.07 0.06 0.05 0.05 0.05 0.05 0.06 0.05 0.07
0.01 0.01 0.01 0.01 0.00 0.00 0.01 0.02 0.03 0.03 0.05 0.08 0.12 0.12 0.07 0.03 0.01 0.01 0.00 0.00 0.01 0.01 0.01 0.01 0.02 0.02 0.02 0.03 0.04 0.04 0.05 0.06 0.07 0.10 0.12 0.14 0.14 0.07 0.04 0.05 0.06 0.06 0.07 0.07 0.06 0.05 0.05 0.05 0.06
0.01 0.01 0.01 0.01 0.00 0.01 0.01 0.02 0.03 0.04 0.04 0.05 0.10 0.15 0.08 0.03 0.01 0.01 0.01 0.00 0.01 0.01 0.01 0.02 0.02 0.02 0.02 0.02 0.01 0.02 0.02 0.03 0.05 0.07 0.07 0.07 0.06 0.05 0.05 0.07 0.07 0.08 0.10 0.10 0.09 0.09 0.07 0.07 0.07
0.00 0.00 0.00 0.01 0.01 0.01 0.01 0.01 0.01 0.02 0.03 0.05 0.08 0.07 0.05 0.03 0.02 0.02 0.02 0.01 0.01 0.01 0.01 0.02 0.02 0.02 0.01 0.01 0.01 0.01 0.01 0.02 0.03 0.05 0.06 0.06 0.08 0.14 0.14 0.10 0.08 0.10 0.12 0.11 0.12 0.11 0.09 0.08 0.08
0.00 0.00 0.01 0.02 0.01 0.01 0.01 0.01 0.01 0.01 0.04 0.04 0.03 0.04 0.04 0.05 0.06 0.05 0.04 0.03 0.04 0.03 0.02 0.02 0.03 0.03 0.03 0.02 0.01 0.01 0.01 0.02 0.03 0.04 0.05 0.05 0.09 0.14 0.11 0.08 0.07 0.08 0.09 0.12 0.12 0.10 0.12 0.13 0.11
0.00 0.01 0.01 0.01 0.02 0.03 0.02 0.01 0.01 0.01 0.02 0.03 0.02 0.02 0.03 0.06 0.08 0.09 0.09 0.09 0.09 0.06 0.03 0.02 0.02 0.03 0.05 0.03 0.01 0.01 0.01 0.01 0.02 0.03 0.03 0.04 0.05 0.05 0.05 0.04 0.05 0.06 0.06 0.07 0.08 0.09 0.11 0.12 0.11
0.00 0.01 0.01 0.02 0.04 0.04 0.03 0.02 0.02 0.02 0.01 0.02 0.03 0.03 0.05 0.09 0.10 0.12 0.14 0.12 0.09 0.06 0.03 0.02 0.02 0.02 0.02 0.01 0.01 0.01 0.01 0.01 0.02 0.03 0.03 0.03 0.03 0.02 0.02 0.02 0.02 0.02 0.03 0.06 0.08 0.09 0.07 0.06 0.05
0.00 0.00 0.01 0.01 0.02 0.03 0.04 0.03 0.03 0.02 0.01 0.01 0.01 0.06 0.11 0.14 0.13 0.12 0.10 0.10 0.08 0.04 0.03 0.02 0.02 0.01 0.02 0.02 0.01 0.01 0.01 0.01 0.02 0.02 0.02 0.02 0.02 0.02 0.01 0.01 0.01 0.01 0.03 0.03 0.03 0.02 0.02 0.02 0.03
0.00 0.01 0.01 0.01 0.01 0.02 0.04 0.04 0.02 0.01 0.01 0.01 0.02 0.08 0.12 0.17 0.18 0.11 0.05 0.06 0.07 0.07 0.08 0.05 0.03 0.03 0.03 0.03 0.02 0.01 0.01 0.01 0.01 0.01 0.01 0.01 0.01 0.01 0.02 0.02 0.02 0.02 0.01 0.01 0.01 0.02 0.02 0.02 0.03
0.01 0.01 0.01 0.01 0.01 0.01 0.03 0.04 0.01 0.01 0.02 0.02 0.04 0.09 0.10 0.11 0.12 0.11 0.07 0.07 0.10 0.06 0.07 0.07 0.07 0.08 0.05 0.03 0.02 0.02 0.01 0.01 0.01 0.01 0.01 0.01 0.01 0.01 0.02 0.02 0.02 0.02 0.01 0.01 0.01 0.02 0.03 0.03 0.03
0.01 0.01 0.01 0.02 0.03 0.01 0.01 0.02 0.02 0.01 0.02 0.03 0.05 0.03 0.03 0.05 0.07 0.11 0.09 0.05 0.05 0.05 0.05 0.06 0.07 0.07 0.05 0.03 0.03 0.02 0.01 0.01 0.02 0.01 0.01 0.03 0.02 0.02 0.02 0.02 0.02 0.02 0.02 0.02 0.02 0.03 0.03 0.04 0.04
MSLP
1008.80 1009.73 1010.72 1011.57 1012.12 1012.27 1012.00 1011.38 1010.55 1009.73 1009.09 1008.77 1008.82 1009.22 1009.84 1010.53 1011.14 1011.55 1011.69 1011.61 1011.38 1011.12 1010.94 1010.92 1011.09 1011.41 1011.82 1012.23 1012.57 1012.81 1012.95 1013.03 1013.10 1013.23 1013.44 1013.74 1014.10 1014.45 1014.76 1014.96 1015.04 1015.03 1014.94 1014.83 1014.74 1014.69 1014.70 1014.76 1014.84
1009.07 1010.12 1011.14 1011.92 1012.33 1012.28 1011.80 1010.99 1010.02 1009.11 1008.43 1008.11 1008.19 1008.63 1009.29 1010.02 1010.65 1011.08 1011.28 1011.26 1011.11 1010.95 1010.88 1010.96 1011.21 1011.59 1012.04 1012.47 1012.81 1013.05 1013.19 1013.28 1013.37 1013.51 1013.73 1014.03 1014.37 1014.69 1014.95 1015.11 1015.16 1015.12 1015.02 1014.91 1014.83 1014.79 1014.82 1014.87 1014.94
1009.51 1010.62 1011.60 1012.26 1012.49 1012.25 1011.57 1010.60 1009.53 1008.57 1007.89 1007.60 1007.73 1008.20 1008.88 1009.62 1010.25 1010.70 1010.91 1010.94 1010.87 1010.80 1010.83 1011.01 1011.34 1011.78 1012.26 1012.70 1013.05 1013.29 1013.44 1013.53 1013.63 1013.78 1013.99 1014.27 1014.58 1014.86 1015.08 1015.20 1015.22 1015.17 1015.07 1014.98 1014.92 1014.91 1014.95 1015.01 1015.06
1010.04 1011.14 1012.03 1012.54 1012.58 1012.15 1011.33 1010.26 1009.15 1008.20 1007.57 1007.35 1007.53 1008.03 1008.71 1009.43 1010.05 1010.47 1010.69 1010.75 1010.73 1010.74 1010.85 1011.11 1011.50 1011.98 1012.48 1012.93 1013.28 1013.52 1013.67 1013.77 1013.87 1014.02 1014.22 1014.47 1014.74 1014.98 1015.16 1015.25 1015.25 1015.21 1015.14 1015.08 1015.05 1015.07 1015.11 1015.16 1015.19
1010.55 1011.57 1012.32 1012.65 1012.53 1011.96 1011.06 1009.98 1008.91 1008.06 1007.54 1007.41 1007.66 1008.18 1008.85 1009.53 1010.09 1010.47 1010.67 1010.73 1010.75 1010.82 1010.99 1011.29 1011.72 1012.22 1012.71 1013.15 1013.49 1013.72 1013.87 1013.97 1014.08 1014.23 1014.43 1014.66 1014.89 1015.09 1015.23 1015.30 1015.30 1015.27 1015.23 1015.20 1015.21 1015.24 1015.29 1015.31 1015.31
1010.91 1011.79 1012.35 1012.52 1012.27 1011.63 1010.74 1009.74 1008.82 1008.13 1007.77 1007.78 1008.10 1008.65 1009.29 1009.91 1010.39 1010.71 1010.87 1010.93 1010.96 1011.06 1011.26 1011.59 1012.03 1012.51 1012.97 1013.38 1013.68 1013.90 1014.04 1014.15 1014.27 1014.43 1014.63 1014.85 1015.06 1015.23 1015.35 1015.40 1015.40 1015.37 1015.35 1015.36 1015.39 1015.43 1015.46 1015.46 1015.41
1011.00 1011.68 1012.06 1012.08 1011.75 1011.13 1010.33 1009.51 1008.81 1008.36 1008.21 1008.37 1008.78 1009.35 1009.95 1010.49 1010.90 1011.15 1011.26 1011.31 1011.35 1011.47 1011.68 1012.01 1012.41 1012.85 1013.26 1013.61 1013.87 1014.05 1014.19 1014.32 1014.46 1014.64 1014.86 1015.08 1015.28 1015.43 1015.53 1015.56 1015.55 1015.53 1015.52 1015.53 1015.56 1015.60 1015.61 1015.57 1015.47
1010.77 1011.23 1011.43 1011.34 1010.98 1010.45 1009.83 1009.26 1008.84 1008.65 1008.73 1009.05 1009.55 1010.12 1010.69 1011.16 1011.49 1011.67 1011.76 1011.79 1011.85 1011.98 1012.19 1012.50 1012.86 1013.23 1013.57 1013.84 1014.05 1014.20 1014.34 1014.48 1014.66 1014.87 1015.11 1015.35 1015.56 1015.70 1015.78 1015.79 1015.76 1015.73 1015.70 1015.71 1015.72 1015.74 1015.72 1015.64 1015.48
1010.24 1010.50 1010.53 1010.37 1010.04 1009.64 1009.25 1008.96 1008.84 1008.93 1009.23 1009.69 1010.25 1010.83 1011.34 1011.75 1012.02 1012.16 1012.23 1012.28 1012.36 1012.51 1012.73 1013.01 1013.32 1013.62 1013.88 1014.08 1014.23 1014.35 1014.48 1014.64 1014.86 1015.11 1015.39 1015.66 1015.87 1016.01 1016.07 1016.06 1016.00 1015.94 1015.89 1015.86 1015.85 1015.83 1015.77 1015.65 1015.46
1009.54 1009.61 1009.53 1009.32 1009.07 1008.83 1008.67 1008.65 1008.80 1009.13 1009.61 1010.18 1010.78 1011.33 1011.80 1012.15 1012.37 1012.51 1012.59 1012.67 1012.79 1012.97 1013.21 1013.48 1013.75 1013.99 1014.17 1014.31 1014.41 1014.50 1014.63 1014.81 1015.06 1015.35 1015.67 1015.96 1016.19 1016.33 1016.37 1016.33 1016.24 1016.14 1016.04 1015.97 1015.92 1015.87 1015.78 1015.63 1015.41
1008.84 1008.77 1008.60 1008.39 1008.22 1008.13 1008.18 1008.38 1008.75 1009.25 1009.84 1010.47 1011.06 1011.58 1011.99 1012.29 1012.49 1012.63 1012.75 1012.89 1013.07 1013.30 1013.56 1013.83 1014.08 1014.28 1014.41 1014.50 1014.57 1014.65 1014.77 1014.97 1015.24 1015.57 1015.91 1016.22 1016.46 1016.59 1016.63 1016.56 1016.44 1016.30 1016.16 1016.05 1015.96 1015.87 1015.76 1015.59 1015.35
1008.33 1008.16 1007.94 1007.75 1007.65 1007.68 1007.88 1008.24 1008.74 1009.33 1009.96 1010.57 1011.12 1011.58 1011.93 1012.19 1012.39 1012.55 1012.71 1012.91 1013.16 1013.44 1013.74 1014.03 1014.28 1014.47 1014.59 1014.66 1014.71 1014.79 1014.92 1015.12 1015.40 1015.74 1016.09 1016.40 1016.64 1016.77 1016.79 1016.72 1016.57 1016.40 1016.23 1016.09 1015.97 1015.86 1015.73 1015.55 1015.31
1008.15 1007.92 1007.69 1007.52 1007.47 1007.59 1007.87 1008.30 1008.83 1009.42 1010.02 1010.56 1011.04 1011.41 1011.71 1011.93 1012.12 1012.31 1012.52 1012.78 1013.08 1013.42 1013.76 1014.08 1014.35 1014.55 1014.68 1014.77 1014.84 1014.93 1015.06 1015.27 1015.54 1015.86 1016.19 1016.49 1016.71 1016.84 1016.86 1016.78 1016.63 1016.44 1016.26 1016.10 1015.96 1015.83 1015.70 1015.52 1015.29
1008.37 1008.13 1007.89 1007.73 1007.72 1007.86 1008.15 1008.57 1009.07 1009.59 1010.09 1010.53 1010.90 1011.20 1011.43 1011.63 1011.82 1012.03 1012.27 1012.57 1012.90 1013.26 1013.63 1013.98 1014.28 1014.53 1014.71 1014.85 1014.97 1015.08 1015.23 1015.42 1015.66 1015.94 1016.22 1016.48 1016.67 1016.79 1016.81 1016.74 1016.61 1016.44 1016.26 1016.10 1015.95 1015.82 1015.69 1015.52 1015.30
1008.94 1008.69 1008.46 1008.31 1008.30 1008.44 1008.70 1009.05 1009.45 1009.85 1010.22 1010.54 1010.81 1011.03 1011.22 1011.40 1011.60 1011.81 1012.07 1012.36 1012.70 1013.06 1013.43 1013.79 1014.14 1014.44 1014.70 1014.91 1015.10 1015.26 1015.42 1015.59 1015.79 1015.99 1016.20 1016.40 1016.55 1016.65 1016.68 1016.64 1016.55 1016.41 1016.26 1016.11 1015.98 1015.85 1015.71 1015.55 1015.34
1009.71 1009.46 1009.24 1009.11 1009.09 1009.19 1009.39 1009.65 1009.92 1010.19 1010.42 1010.63 1010.81 1010.98 1011.14 1011.32 1011.52 1011.73 1011.98 1012.24 1012.54 1012.86 1013.20 1013.57 1013.94 1014.31 1014.65 1014.97 1015.23 1015.46 1015.64 1015.79 1015.93 1016.05 1016.17 1016.29 1016.39 1016.47 1016.51 1016.51 1016.47 1016.39 1016.28 1016.16 1016.03 1015.91 1015.77 1015.62 1015.42
1010.50 1010.26 1010.06 1009.94 1009.93 1010.00 1010.13 1010.28 1010.43 1010.55 1010.66 1010.76 1010.88 1011.02 1011.18 1011.38 1011.59 1011.80 1012.02 1012.23 1012.46 1012.71 1013.00 1013.34 1013.73 1014.16 1014.59 1015.01 1015.38 1015.67 1015.88 1016.01 1016.08 1016.12 1016.14 1016.17 1016.21 1016.27 1016.32 1016.37 1016.39 1016.37 1016.32 1016.24 1016.14 1016.02 1015.88 1015.73 1015.54
1011.14 1010.91 1010.76 1010.68 1010.69 1010.75 1010.82 1010.87 1010.89 1010.89 1010.88 1010.90 1010.96 1011.09 1011.28 1011.51 1011.75 1011.97 1012.15 1012.31 1012.45 1012.61 1012.83 1013.13 1013.52 1013.99 1014.51 1015.03 1015.49 1015.86 1016.11 1016.23 1016.24 1016.19 1016.12 1016.06 1016.04 1016.07 1016.14 1016.24 1016.32 1016.38 1016.39 1016.36 1016.28 1016.16 1016.03 1015.87 1015.70
1011.51 1011.34 1011.26 1011.26 1011.32 1011.39 1011.42 1011.39 1011.30 1011.16 1011.04 1010.97 1010.99 1011.12 1011.34 1011.62 1011.90 1012.14 1012.31 1012.42 1012.49 1012.56 1012.70 1012.94 1013.32 1013.82 1014.40 1015.00 1015.56 1016.00 1016.28 1016.40 1016.37 1016.24 1016.08 1015.95 1015.87 1015.88 1015.97 1016.11 1016.27 1016.40 1016.47 1016.48 1016.43 1016.33 1016.19 1016.05 1015.89
1011.61 1011.53 1011.57 1011.70 1011.85 1011.96 1011.97 1011.86 1011.65 1011.38 1011.12 1010.94 1010.91 1011.02 1011.27 1011.60 1011.94 1012.22 1012.41 1012.49 1012.51 1012.51 1012.57 1012.76 1013.11 1013.62 1014.24 1014.91 1015.53 1016.03 1016.35 1016.47 1016.42 1016.24 1016.02 1015.82 1015.70 1015.70 1015.80 1015.99 1016.21 1016.40 1016.54 1016.59 1016.57 1016.47 1016.35 1016.21 1016.08
1011.51 1011.58 1011.79 1012.09 1012.37 1012.55 1012.55 1012.36 1012.01 1011.57 1011.14 1010.82 1010.68 1010.75 1011.01 1011.38 1011.78 1012.13 1012.37 1012.47 1012.47 1012.44 1012.45 1012.58 1012.90 1013.39 1014.02 1014.72 1015.39 1015.93 1016.29 1016.42 1016.35 1016.15 1015.89 1015.65 1015.51 1015.50 1015.62 1015.84 1016.10 1016.35 1016.54 1016.64 1016.64 1016.56 1016.45 1016.32 1016.22
1011.35 1011.62 1012.06 1012.56 1013.00 1013.25 1013.25 1012.97 1012.45 1011.80 1011.16 1010.64 1010.35 1010.33 1010.56 1010.95 1011.42 1011.85 1012.16 1012.33 1012.36 1012.33 1012.31 1012.41 1012.67 1013.13 1013.75 1014.44 1015.12 1015.69 1016.07 1016.22 1016.16 1015.96 1015.68 1015.43 1015.28 1015.26 1015.39 1015.63 1015.94 1016.23 1016.45 1016.58 1016.60 1016.55 1016.44 1016.33 1016.24
1011.26 1011.76 1012.46 1013.19 1013.79 1014.14 1014.12 1013.73 1013.03 1012.15 1011.25 1010.49 1010.00 1009.84 1009.99 1010.38 1010.90 1011.42 1011.83 1012.08 1012.18 1012.18 1012.17 1012.24 1012.46 1012.87 1013.43 1014.09 1014.76 1015.32 1015.72 1015.89 1015.86 1015.67 1015.41 1015.16 1015.01 1014.99 1015.12 1015.37 1015.69 1015.99 1016.24 1016.39 1016.43 1016.38 1016.28 1016.18 1016.11
1011.30 1012.07 1013.02 1013.98 1014.75 1015.18 1015.15 1014.65 1013.76 1012.63 1011.46 1010.43 1009.71 1009.37 1009.41 1009.77 1010.31 1010.90 1011.41 1011.77 1011.96 1012.02 1012.03 1012.08 1012.25 1012.60 1013.09 1013.70 1014.32 1014.86 1015.26 1015.46 1015.46 1015.30 1015.07 1014.85 1014.71 1014.69 1014.81 1015.05 1015.36 1015.66 1015.90 1016.05 1016.09 1016.05 1015.95 1015.85 1015.79
1011.49 1012.49 1013.68 1014.84 1015.77 1016.27 1016.23 1015.64 1014.59 1013.23 1011.80 1010.52 1009.56 1009.02 1008.93 1009.21 1009.75 1010.39 1010.98 1011.44 1011.72 1011.84 1011.89 1011.93 1012.06 1012.33 1012.75 1013.27 1013.83 1014.35 1014.74 1014.96 1015.00 1014.90 1014.71 1014.52 1014.39 1014.37 1014.47 1014.69 1014.96 1015.23 1015.45 1015.58 1015.61 1015.56 1015.46 1015.36 1015.29
1011.74 1012.93 1014.31 1015.64 1016.68 1017.25 1017.22 1016.57 1015.40 1013.87 1012.25 1010.75 1009.59 1008.87 1008.63 1008.82 1009.31 1009.96 1010.60 1011.13 1011.48 1011.67 1011.74 1011.78 1011.87 1012.07 1012.39 1012.83 1013.33 1013.80 1014.18 1014.43 1014.51 1014.46 1014.33 1014.18 1014.07 1014.04 1014.12 1014.28 1014.51 1014.73 1014.91 1015.01 1015.02 1014.95 1014.84 1014.73 1014.65
1011.95 1013.27 1014.76 1016.19 1017.31 1017.94 1017.93 1017.28 1016.07 1014.47 1012.74 1011.11 1009.79 1008.93 1008.55 1008.63 1009.05 1009.66 1010.30 1010.85 1011.24 1011.46 1011.55 1011.58 1011.63 1011.76 1012.02 1012.37 1012.80 1013.23 1013.60 1013.87 1014.00 1014.01 1013.94 1013.83 1013.74 1013.71 1013.75 1013.86 1014.02 1014.19 1014.31 1014.38 1014.36 1014.29 1014.17 1014.04 1013.95
1012.03 1013.39 1014.91 1016.37 1017.53 1018.19 1018.24 1017.64 1016.48 1014.92 1013.19 1011.53 1010.15 1009.19 1008.69 1008.65 1008.96 1009.48 1010.07 1010.59 1010.97 1011.19 1011.28 1011.30 1011.31 1011.39 1011.58 1011.87 1012.23 1012.63 1013.00 1013.28 1013.46 1013.53 1013.52 1013.46 1013.39 1013.35 1013.36 1013.43 1013.53 1013.63 1013.71 1013.74 1013.71 1013.62 1013.50 1013.37 1013.26
1011.95 1013.26 1014.72 1016.12 1017.26 1017.95 1018.07 1017.59 1016.57 1015.14 1013.54 1011.96 1010.60 1009.59 1009.02 1008.85 1009.03 1009.41 1009.88 1010.31 1010.64 1010.83 1010.89 1010.88 1010.87 1010.92 1011.05 1011.29 1011.62 1011.98 1012.35 1012.65 1012.87 1013.00 1013.04 1013.03 1012.98 1012.95 1012.94 1012.97 1013.02 1013.08 1013.12 1013.13 1013.09 1013.01 1012.90 1012.77 1012.66
1011.74 1012.92 1014.24 1015.53 1016.60 1017.29 1017.49 1017.16 1016.34 1015.14 1013.75 1012.33 1011.07 1010.09 1009.45 1009.17 1009.18 1009.40 1009.71 1010.00 1010.23 1010.35 1010.37 1010.34 1010.31 1010.33 1010.44 1010.65 1010.94 1011.28 1011.64 1011.96 1012.22 1012.39 1012.48 1012.51 1012.50 1012.48 1012.47 1012.48 1012.50 1012.53 1012.56 1012.56 1012.53 1012.47 1012.38 1012.28 1012.18
Thickness
5828 5826 5822 5811 5793 5777 5776 5792 5807 5808 5810 5817 5821 5815 5804 5796 5787 5777 5799 5806 5805 5803 5801 5800 5800 5799 5799 5798 5798 5797 5797 5796 5795 5794 5793 5791 5790 5788 5787 5786 5785 5783 5782 5781 5779 5778 5776 5776 5775
5831 5827 5817 5803 5782 5766 5777 5800 5806 5811 5818 5825 5823 5817 5807 5800 5805 5802 5803 5806 5807 5804 5802 5801 5800 5799 5799 5798 5797 5797 5797 5796 5795 5794 5793 5791 5790 5788 5786 5785 5784 5783 5782 5781 5779 5778 5776 5775 5774
5834 5829 5810 5796 5782 5774 5784 5805 5812 5821 5829 5827 5819 5817 5809 5802 5807 5806 5809 5810 5808 5805 5803 5802 5801 5800 5799 5798 5797 5797 5796 5795 5795 5794 5792 5791 5789 5788 5786 5785 5783 5782 5781 5780 5779 5777 5776 5775 5773
5831 5819 5808 5791 5784 5797 5804 5813 5821 5820 5824 5827 5820 5809 5811 5818 5816 5814 5813 5811 5808 5805 5804 5802 5801 5800 5799 5799 5798 5797 5796 5795 5794 5793 5792 5790 5789 5787 5786 5785 5784 5782 5781 5780 5778 5777 5776 5775 5774
5829 5811 5794 5785 5793 5809 5820 5827 5828 5821 5819 5820 5817 5803 5802 5818 5822 5818 5814 5812 5808 5806 5804 5803 5801 5801 5800 5799 5798 5797 5796 5795 5794 5793 5791 5790 5788 5787 5786 5785 5784 5782 5780 5779 5778 5777 5776 5775 5774
5818 5807 5784 5780 5797 5814 5826 5833 5831 5822 5818 5819 5815 5803 5801 5817 5818 5816 5815 5812 5810 5807 5805 5803 5801 5801 5800 5799 5798 5797 5796 5794 5793 5792 5791 5789 5788 5786 5785 5784 5783 5781 5780 5779 5778 5777 5776 5775 5774
5813 5801 5789 5794 5801 5811 5825 5837 5830 5823 5819 5821 5821 5803 5802 5812 5818 5818 5816 5813 5810 5807 5805 5803 5802 5801 5800 5799 5797 5796 5795 5794 5792 5791 5790 5788 5787 5786 5785 5784 5782 5781 5779 5778 5777 5777 5776 5775 5774
5828 5807 5798 5800 5803 5811 5832 5839 5838 5831 5825 5834 5829 5806 5800 5813 5821 5819 5815 5811 5808 5806 5805 5803 5802 5801 5800 5798 5797 5796 5795 5793 5792 5790 5789 5787 5786 5785 5784 5783 5781 5780 5779 5778 5777 5777 5776 5775 5774
5837 5804 5793 5805 5811 5818 5835 5834 5839 5846 5836 5833 5833 5825 5823 5825 5822 5815 5809 5806 5805 5804 5804 5803 5802 5801 5800 5798 5797 5796 5795 5793 5791 5789 5787 5786 5785 5784 5783 5782 5781 5780 5779 5778 5777 5776 5776 5775 5774
5827 5801 5811 5830 5834 5832 5838 5838 5837 5832 5825 5822 5824 5827 5828 5825 5819 5812 5807 5803 5802 5801 5802 5803 5802 5801 5800 5799 5798 5796 5794 5792 5791 5789 5787 5785 5784 5783 5782 5781 5780 5779 5778 5777 5776 5776 5775 5774 5773
5832 5820 5833 5842 5848 5846 5840 5841 5843 5828 5815 5820 5820 5821 5823 5821 5818 5813 5810 5808 5806 5805 5804 5804 5803 5802 5800 5799 5797 5795 5794 5792 5790 5789 5787 5785 5783 5781 5780 5779 5778 5778 5776 5775 5775 5774 5774 5773 5773
5838 5840 5846 5848 5855 5850 5844 5843 5838 5833 5829 5837 5835 5831 5826 5821 5817 5815 5812 5810 5809 5808 5807 5807 5806 5803 5801 5800 5798 5796 5794 5792 5790 5789 5787 5785 5782 5780 5779 5777 5777 5776 5775 5775 5774 5772 5773 5772 5772
5840 5844 5852 5854 5854 5853 5849 5843 5839 5836 5843 5843 5837 5832 5826 5823 5821 5821 5819 5815 5812 5809 5808 5808 5807 5805 5803 5801 5799 5797 5794 5792 5790 5789 5786 5784 5782 5779 5778 5776 5775 5775 5775 5774 5772 5771 5771 5770 5770
5845 5848 5850 5853 5852 5854 5845 5840 5837 5835 5842 5838 5833 5828 5828 5825 5824 5821 5819 5815 5813 5811 5810 5810 5808 5807 5804 5802 5800 5798 5796 5794 5791 5788 5786 5784 5782 5779 5778 5776 5775 5774 5774 5773 5772 5771 5769 5768 5768
5852 5840 5842 5848 5849 5847 5843 5825 5830 5839 5840 5833 5831 5829 5828 5828 5826 5822 5821 5818 5816 5814 5812 5811 5810 5808 5805 5803 5801 5799 5797 5794 5791 5789 5787 5784 5782 5780 5778 5776 5775 5774 5773 5772 5771 5770 5769 5768 5767
5839 5825 5815 5837 5846 5845 5830 5805 5830 5841 5837 5830 5830 5829 5825 5826 5827 5826 5825 5822 5819 5816 5813 5812 5812 5808 5806 5803 5801 5799 5797 5794 5791 5789 5787 5785 5782 5780 5778 5776 5774 5774 5772 5771 5769 5768 5766 5765 5764
5815 5803 5807 5826 5846 5844 5828 5812 5831 5839 5836 5829 5830 5829 5826 5824 5825 5827 5827 5825 5822 5819 5815 5812 5812 5809 5806 5804 5801 5799 5796 5793 5791 5789 5787 5785 5782 5780 5778 5775 5773 5773 5771 5769 5768 5766 5764 5762 5761
5799 5804 5809 5815 5838 5838 5825 5821 5831 5838 5836 5831 5831 5830 5827 5824 5825 5829 5829 5827 5825 5821 5817 5814 5811 5809 5806 5803 5800 5796 5794 5792 5790 5788 5787 5785 5783 5781 5777 5775 5773 5771 5769 5767 5765 5764 5763 5761 5760
5819 5812 5809 5821 5841 5832 5822 5820 5827 5834 5833 5829 5828 5829 5827 5827 5831 5831 5830 5829 5825 5820 5816 5813 5810 5808 5805 5801 5797 5792 5789 5789 5788 5788 5786 5784 5782 5779 5776 5774 5771 5770 5767 5765 5764 5763 5760 5759 5759
5821 5810 5811 5824 5841 5830 5818 5818 5827 5833 5832 5833 5832 5831 5830 5828 5828 5828 5828 5827 5824 5820 5816 5812 5809 5807 5805 5802 5799 5796 5792 5789 5787 5786 5785 5783 5781 5779 5776 5773 5770 5768 5765 5763 5761 5759 5756 5755 5756
5817 5811 5813 5817 5829 5829 5818 5804 5813 5826 5832 5833 5836 5835 5834 5831 5828 5827 5826 5825 5823 5819 5816 5814 5810 5807 5804 5802 5798 5794 5790 5786 5783 5782 5781 5781 5780 5778 5775 5773 5770 5767 5764 5760 5759 5757 5754 5750 5752
5809 5829 5828 5825 5810 5797 5808 5778 5800 5814 5818 5825 5830 5832 5830 5831 5830 5828 5826 5823 5821 5820 5818 5814 5809 5805 5803 5800 5795 5790 5785 5780 5779 5779 5779 5779 5778 5775 5774 5771 5768 5765 5763 5760 5758 5756 5754 5751 5747
5825 5838 5830 5823 5807 5793 5799 5783 5790 5808 5806 5817 5827 5832 5834 5835 5833 5831 5828 5826 5823 5821 5816 5812 5807 5803 5801 5797 5793 5789 5784 5781 5780 5778 5776 5775 5774 5773 5772 5769 5767 5764 5761 5760 5758 5756 5754 5751 5747
5842 5830 5819 5807 5791 5771 5787 5781 5780 5798 5810 5819 5828 5832 5835 5835 5834 5831 5829 5826 5821 5818 5815 5810 5805 5801 5799 5795 5792 5787 5782 5779 5776 5774 5771 5770 5769 5769 5768 5767 5765 5762 5760 5758 5756 5755 5752 5749 5746
5829 5797 5770 5765 5755 5761 5788 5783 5786 5817 5827 5828 5829 5833 5837 5836 5832 5828 5825 5821 5818 5814 5811 5807 5802 5797 5795 5792 5790 5786 5782 5778 5774 5771 5769 5766 5764 5764 5764 5764 5762 5760 5758 5756 5755 5752 5749 5747 5745
5816 5799 5765 5750 5747 5759 5779 5776 5798 5827 5834 5836 5836 5836 5835 5832 5829 5826 5823 5820 5817 5813 5809 5804 5800 5796 5793 5790 5787 5784 5780 5776 5773 5770 5767 5765 5763 5762 5761 5760 5758 5757 5755 5753 5751 5749 5747 5745 5743
5812 5799 5797 5770 5764 5755 5764 5783 5803 5823 5824 5828 5830 5830 5828 5828 5827 5824 5822 5819 5815 5811 5807 5803 5797 5793 5790 5787 5784 5780 5777 5774 5770 5767 5765 5763 5761 5760 5758 5756 5755 5753 5751 5749 5747 5744 5743 5741 5739
5824 5810 5784 5765 5747 5740 5756 5768 5775 5798 5807 5817 5820 5821 5823 5824 5824 5820 5818 5816 5813 5810 5804 5799 5795 5790 5787 5784 5780 5778 5773 5771 5768 5764 5761 5759 5757 5756 5754 5752 5750 5748 5746 5744 5742 5740 5739 5736 5735
5808 5801 5783 5764 5757 5740 5736 5756 5803 5805 5811 5812 5817 5821 5823 5823 5819 5816 5814 5811 5808 5804 5800 5795 5791 5786 5782 5779 5775 5772 5769 5767 5764 5760 5757 5755 5753 5751 5749 5747 5745 5743 5741 5739 5737 5735 5734 5731 5729
5813 5800 5783 5762 5756 5752 5743 5761 5816 5814 5816 5815 5816 5819 5820 5820 5817 5814 5810 5805 5802 5798 5795 5791 5786 5782 5779 5775 5771 5767 5764 5761 5758 5755 5752 5750 5748 5746 5745 5743 5740 5738 5736 5734 5732 5729 5728 5726 5723